Location: Lixville
(37.5770°N, 89.9118°W)
Time: 12:55:20
(UTC+00:00)

Courier 1B Rocket - Pass Details

Date: 12 November 2024
Orbit: 920 x 1201 km, 28.2° (Epoch: 02 December)

Event Time Altitude Azimuth Distance (km) Brightness Sun altitude
Rises 01:49:59 0° 261° (W) 3,575 8.9 -35.5°
Reaches altitude 10° 01:52:58 10° 250° (WSW) 2,613 7.9 -36.1°
Enters shadow 01:56:28 24° 219° (SW) 1,778 6.6 -36.8°
